Weather reports worldwide

Advertisment
K13 Alpha, Netherlands (6252): temperature & dewpoint: 22.10.2020 16:00:00 - 28.10.2020 16:00:00 (CET)K13 Alpha, Netherlands (6252): water temperature: 22.10.2020 16:00:00 - 28.10.2020 16:00:00 (CET)K13 Alpha, Netherlands (6252): wind speed & gusts: 22.10.2020 16:00:00 - 28.10.2020 16:00:00 (CET)K13 Alpha, Netherlands (6252): wind direction: 22.10.2020 16:00:00 - 28.10.2020 16:00:00 (CET)K13 Alpha, Netherlands (6252): reduced air pressure: 22.10.2020 16:00:00 - 28.10.2020 16:00:00 (CET)
Date & Time tt [°C] td [°C] tw [°C] ff [km/h] ff [kn] fx [km/h] fx [kn] dd ppp [hPa]
28.10.2020 16:00:00 13,0 7,0 - 0 0 - - N -
28.10.2020 15:00:00 12,6 7,1 12,9 0 0 0 0 N 1000,9
28.10.2020 14:00:00 12,4 7,2 12,9 0 0 0 0 N 1001,1
28.10.2020 13:00:00 12,2 6,5 12,8 0 0 0 0 N 1001,4
28.10.2020 12:00:00 11,6 6,6 12,8 0 0 0 0 N 1001,4
28.10.2020 11:00:00 11,5 6,1 12,8 0 0 0 0 N 1001,2
28.10.2020 10:00:00 11,2 6,6 12,8 0 0 0 0 N 1000,7
28.10.2020 09:00:00 11,2 7,0 12,8 0 0 0 0 N 1000,4
28.10.2020 08:00:00 11,7 6,8 12,8 0 0 0 0 N 1000,0
28.10.2020 07:00:00 11,9 6,9 12,9 0 0 0 0 N 999,6
28.10.2020 06:00:00 11,9 6,7 13,0 0 0 0 0 N 999,5
28.10.2020 05:00:00 11,9 7,4 13,0 0 0 0 0 N 999,2
28.10.2020 04:00:00 12,0 6,9 12,9 0 0 0 0 N 998,9
28.10.2020 03:00:00 11,6 6,1 12,9 0 0 0 0 N 998,9
28.10.2020 02:00:00 11,5 6,3 12,8 0 0 0 0 N 998,7
28.10.2020 01:00:00 11,7 6,7 12,8 0 0 0 0 N 998,0
28.10.2020 00:00:00 12,0 6,8 12,8 0 0 0 0 N 997,0
27.10.2020 23:00:00 12,3 7,9 12,8 0 0 0 0 N 996,1
27.10.2020 22:00:00 12,9 8,3 12,9 0 0 0 0 N 995,1
27.10.2020 21:00:00 13,8 9,5 12,9 0 0 0 0 N 993,8
27.10.2020 20:00:00 12,8 12,0 12,9 0 0 0 0 N 993,5
27.10.2020 19:00:00 12,4 11,4 12,9 0 0 0 0 N 993,5
27.10.2020 18:00:00 12,1 10,6 13,0 0 0 0 0 N 994,3
27.10.2020 17:00:00 12,3 9,3 13,1 0 0 0 0 N 995,4
27.10.2020 16:00:00 11,3 10,1 13,1 0 0 0 0 N 996,4
27.10.2020 15:00:00 11,6 8,1 13,0 0 0 0 0 N 997,5
27.10.2020 14:00:00 11,3 5,7 13,0 0 0 0 0 N 998,4
27.10.2020 13:00:00 12,2 7,5 13,0 0 0 0 0 N 998,6
27.10.2020 12:00:00 11,9 7,5 13,0 0 0 0 0 N 999,4
27.10.2020 11:00:00 11,2 7,2 13,0 0 0 0 0 N 999,6
27.10.2020 10:00:00 10,9 7,3 12,9 0 0 0 0 N 999,4
27.10.2020 09:00:00 10,9 7,5 13,0 0 0 0 0 N 999,6
27.10.2020 08:00:00 10,7 7,3 13,0 0 0 0 0 N 999,4
27.10.2020 07:00:00 10,5 7,4 13,0 0 0 0 0 N 999,2
27.10.2020 06:00:00 10,5 7,2 13,0 0 0 0 0 N 998,9
27.10.2020 05:00:00 10,8 7,4 13,0 0 0 0 0 N 998,5
27.10.2020 04:00:00 10,9 7,7 13,1 0 0 0 0 N 998,2
27.10.2020 03:00:00 11,1 7,5 13,1 0 0 0 0 N 998,2
27.10.2020 02:00:00 11,2 7,6 13,2 0 0 0 0 N 998,2
27.10.2020 01:00:00 11,4 7,3 13,2 0 0 0 0 N 997,9
27.10.2020 00:00:00 11,7 7,6 13,2 0 0 0 0 N 997,9
26.10.2020 23:00:00 11,7 7,2 13,2 0 0 0 0 N 997,5
26.10.2020 22:00:00 12,0 7,3 13,2 0 0 0 0 N 997,3
26.10.2020 21:00:00 12,0 7,6 13,2 0 0 0 0 N 996,8
26.10.2020 20:00:00 11,9 7,8 13,2 0 0 0 0 N 996,4
26.10.2020 19:00:00 11,8 8,6 13,2 0 0 0 0 N 996,2
26.10.2020 18:00:00 11,8 8,1 13,3 0 0 0 0 N 995,8
26.10.2020 17:00:00 11,6 8,3 13,3 0 0 0 0 N 995,3
26.10.2020 16:00:00 12,1 7,8 13,4 0 0 0 0 N 995,2
26.10.2020 15:00:00 12,2 7,4 13,4 0 0 0 0 N 995,0
26.10.2020 14:00:00 12,5 7,2 13,4 0 0 0 0 N 995,1
26.10.2020 13:00:00 12,4 7,4 13,4 0 0 0 0 N 995,4
26.10.2020 12:00:00 12,3 6,7 13,4 0 0 0 0 N 995,5
26.10.2020 11:00:00 12,3 6,9 13,3 0 0 0 0 N 995,5
26.10.2020 10:00:00 11,9 6,4 13,3 0 0 0 0 N 995,7
26.10.2020 09:00:00 11,7 6,6 13,2 0 0 0 0 N 995,9
26.10.2020 08:00:00 11,8 7,4 13,2 0 0 0 0 N 995,5
26.10.2020 07:00:00 11,8 7,3 13,2 0 0 0 0 N 995,2
26.10.2020 06:00:00 11,9 7,8 13,3 0 0 0 0 N 995,4
26.10.2020 05:00:00 12,4 7,9 13,3 0 0 0 0 N 995,4
26.10.2020 04:00:00 12,3 6,9 13,4 0 0 0 0 N 995,3
26.10.2020 03:00:00 12,4 7,2 13,5 0 0 0 0 N 995,4
26.10.2020 02:00:00 12,4 6,8 13,5 0 0 0 0 N 995,9
26.10.2020 01:00:00 12,4 7,0 13,5 0 0 0 0 N 996,1
26.10.2020 00:00:00 12,8 7,7 13,5 0 0 0 0 N 996,5
25.10.2020 23:00:00 12,7 7,4 13,4 0 0 0 0 N 996,5
25.10.2020 22:00:00 12,9 7,2 13,4 0 0 0 0 N 996,7
25.10.2020 21:00:00 12,9 7,9 13,4 0 0 0 0 N 996,8
25.10.2020 20:00:00 12,9 7,3 13,4 0 0 0 0 N 996,8
25.10.2020 19:00:00 12,9 8,1 13,4 0 0 0 0 N 996,9
25.10.2020 18:00:00 12,9 7,9 13,5 0 0 0 0 N 996,8
25.10.2020 17:00:00 13,1 7,9 13,5 0 0 0 0 N 996,6
25.10.2020 16:00:00 12,5 8,8 13,6 0 0 0 0 N 996,6
25.10.2020 15:00:00 12,6 8,7 13,6 0 0 0 0 N 996,5
25.10.2020 14:00:00 12,4 8,9 13,7 0 0 0 0 N 996,8
25.10.2020 13:00:00 13,2 8,9 13,6 0 0 0 0 N 996,9
25.10.2020 12:00:00 13,3 7,5 13,6 0 0 0 0 N 997,3
25.10.2020 11:00:00 13,0 7,8 13,6 0 0 0 0 N 997,5
25.10.2020 10:00:00 12,7 7,1 13,5 0 0 0 0 N 997,7
25.10.2020 09:00:00 12,3 7,8 13,5 0 0 0 0 N 997,4
25.10.2020 08:00:00 12,1 9,0 13,5 0 0 0 0 N 996,3
25.10.2020 07:00:00 12,4 9,4 13,5 0 0 0 0 N 996,2
25.10.2020 06:00:00 12,6 8,7 13,6 0 0 0 0 N 995,8
25.10.2020 05:00:00 12,5 9,8 13,6 0 0 0 0 N 995,5
25.10.2020 04:00:00 13,5 9,0 13,7 0 0 0 0 N 995,0
25.10.2020 03:00:00 13,7 8,9 13,7 0 0 0 0 N 995,4
25.10.2020 02:00:00 13,4 10,1 13,7 0 0 0 0 N 994,7
25.10.2020 01:00:00 - - - - - - - - -
25.10.2020 00:00:00 13,0 12,2 13,7 0 0 0 0 N 995,0
24.10.2020 23:00:00 15,4 13,1 13,7 0 0 0 0 N 995,2
24.10.2020 22:00:00 15,6 12,9 13,6 0 0 0 0 N 995,9
24.10.2020 21:00:00 15,7 12,8 13,6 0 0 0 0 N 997,0
24.10.2020 20:00:00 15,2 12,9 13,5 0 0 0 0 N 998,1
24.10.2020 19:00:00 15,2 12,7 13,5 0 0 0 0 N 999,0
24.10.2020 18:00:00 15,0 12,6 13,5 0 0 0 0 N 999,9
24.10.2020 17:00:00 14,8 12,0 13,5 0 0 0 0 N 1001,0
24.10.2020 16:00:00 14,6 12,4 13,6 0 0 0 0 N 1001,9
24.10.2020 15:00:00 14,2 12,3 13,6 0 0 0 0 N 1002,9
24.10.2020 14:00:00 14,2 11,8 13,6 0 0 0 0 N 1003,8
24.10.2020 13:00:00 14,5 10,5 13,6 0 0 0 0 N 1004,5
24.10.2020 12:00:00 14,0 9,9 13,6 0 0 0 0 N 1005,2
24.10.2020 11:00:00 13,6 8,8 13,5 0 0 0 0 N 1005,6
24.10.2020 10:00:00 13,8 9,8 13,5 0 0 0 0 N 1005,7
24.10.2020 09:00:00 13,3 8,2 13,5 0 0 0 0 N 1006,4
24.10.2020 08:00:00 12,9 7,1 13,4 0 0 0 0 N 1006,6
24.10.2020 07:00:00 12,0 5,7 13,4 0 0 0 0 N 1007,1
24.10.2020 06:00:00 11,6 5,5 13,4 0 0 0 0 N 1007,4
24.10.2020 05:00:00 11,5 5,9 13,4 0 0 0 0 N 1007,7
24.10.2020 04:00:00 11,6 6,6 13,4 0 0 0 0 N 1007,9
24.10.2020 03:00:00 11,9 7,6 13,5 0 0 0 0 N 1008,3
24.10.2020 02:00:00 11,9 6,8 13,5 0 0 0 0 N 1008,4
24.10.2020 01:00:00 12,0 5,7 13,5 0 0 0 0 N 1008,2
24.10.2020 00:00:00 12,2 6,8 13,6 0 0 0 0 N 1008,2
23.10.2020 23:00:00 12,5 7,3 13,6 0 0 0 0 N 1007,9
23.10.2020 22:00:00 13,0 9,1 13,6 0 0 0 0 N 1007,4
23.10.2020 21:00:00 13,9 10,2 13,5 0 0 0 0 N 1006,8
23.10.2020 20:00:00 13,8 11,2 13,5 0 0 0 0 N 1006,4
23.10.2020 19:00:00 13,9 11,9 13,5 0 0 0 0 N 1006,2
23.10.2020 18:00:00 14,3 12,5 13,5 0 0 0 0 N 1006,0
23.10.2020 17:00:00 14,0 11,8 13,5 0 0 0 0 N 1005,8
23.10.2020 16:00:00 13,9 12,4 13,5 0 0 0 0 N 1006,1
23.10.2020 15:00:00 14,0 12,1 13,6 0 0 0 0 N 1006,2
23.10.2020 14:00:00 14,1 12,1 13,6 0 0 0 0 N 1006,5
23.10.2020 13:00:00 14,6 11,8 13,6 0 0 0 0 N 1006,6
23.10.2020 12:00:00 14,3 12,7 13,6 0 0 0 0 N 1007,2
23.10.2020 11:00:00 14,3 12,4 13,6 0 0 0 0 N 1007,4
23.10.2020 10:00:00 14,1 11,5 13,6 0 0 0 0 N 1008,0
23.10.2020 09:00:00 13,6 10,8 13,5 0 0 0 0 N 1008,4
23.10.2020 08:00:00 13,0 9,2 13,5 0 0 0 0 N 1008,3
23.10.2020 07:00:00 12,9 9,0 13,5 0 0 0 0 N 1008,5
23.10.2020 06:00:00 12,6 8,4 13,4 0 0 0 0 N 1009,0
23.10.2020 05:00:00 12,5 8,2 13,4 0 0 0 0 N 1009,1
23.10.2020 04:00:00 12,3 6,8 13,4 0 0 0 0 N 1009,4
23.10.2020 03:00:00 12,2 6,5 13,4 0 0 0 0 N 1009,8
23.10.2020 02:00:00 12,1 7,1 13,5 0 0 0 0 N 1009,9
23.10.2020 01:00:00 12,4 7,1 13,5 0 0 0 0 N 1010,0
23.10.2020 00:00:00 12,5 6,8 13,5 0 0 0 0 N 1009,8
22.10.2020 23:00:00 12,7 6,8 13,6 0 0 0 0 N 1009,8
22.10.2020 22:00:00 12,7 7,0 13,6 0 0 0 0 N 1009,9
22.10.2020 21:00:00 12,9 6,9 13,7 0 0 0 0 N 1009,4
22.10.2020 20:00:00 13,1 7,7 13,6 0 0 0 0 N 1008,9
22.10.2020 19:00:00 13,1 7,9 13,6 0 0 0 0 N 1008,6
22.10.2020 18:00:00 13,6 10,4 13,6 0 0 0 0 N 1008,0
22.10.2020 17:00:00 14,0 10,2 13,5 0 0 0 0 N 1007,5
22.10.2020 16:00:00 13,8 10,7 13,6 0 0 0 0 N 1007,0

tt = temperature
td = dewpoint
tw = water temperature
ff = wind speed
fx = gusts
dd = wind direction
ppp = reduced air pressure

Next stations